Volver al catálogo

STARLINK-36642

ActivoComunicacionesSSO
NORAD 67659·PAYLOAD·🇺🇸 United States

Lanzado Feb 2, 2026 desde Vandenberg Space Force Base

Loading…

Próximos Pases (próximas 24 horas)

TLE

ActualizadoSource: CelesTrak SupGP

Época: Sep 14, 2026, 21:01 UTC

1 67659C 26022M   26257.87618056  .00011398  00000+0  35393-3 0  2572
2 67659  97.2838 289.5153 0001336  99.0468 308.6608 15.33424371    19

Sigue STARLINK-36642 en tiempo real con AllMySat

Download on the App Store